Weather History for Copenhagen, Denmark

Change the Weather History Date:

Friday, September 13, 2013

  Actual Average Record
Temperature  
Mean Temperature 57 °F -  
Max Temperature 67 °F 59 °F 75 °F (2002)
Min Temperature 47 °F 47 °F 46 °F (2012)
Degree Days  
Heating Degree Days 8    
Growing Degree Days 7 (Base 50)    
Moisture  
Dew Point 52 °F    
Average Humidity 81    
Maximum Humidity 100    
Minimum Humidity 43    
Precipitation  
Precipitation 0.00 in - - ()
Sea Level Pressure  
Sea Level Pressure 30.03 in    
Wind  
Wind Speed 3 mph ()    
Max Wind Speed 10 mph    
Max Gust Speed -    
Visibility 5.4 miles    
Events Fog    
Averages and records for this station are not official NWS values.
T = Trace of Precipitation, MM = Missing Value Source: Averaged Metar Reports

Daily Weather History Graph

Daily Weather History Graph

Search for Another Location

Airport:

Trip Planner

Search our weather history database for the weather conditions in past years. The results will help you decide how hot, cold, wet, or windy it might be!

Date:

Astronomy

Sep. 13, 2013 Rise Set
Actual Time 6:37 AM CEST 7:31 PM CEST
Civil Twilight 6:00 AM CEST 8:09 PM CEST
Nautical Twilight 5:14 AM CEST 8:54 PM CEST
Astronomical Twilight 4:24 AM CEST 9:43 PM CEST
Moon 3:52 PM CEST (9/13) No Moon Set
Length of Visible Light 14h 09m
Length of Day
12h 54m
First Quarter, 58% of the Moon is Illuminated
Sep 13
First Quarter
Sep 19
Full
Sep 27
Last Quarter
Oct 5
New
Oct 12
First Quarter

Hourly Weather History & Observations

Time (CEST) Temp. Dew Point Humidity Pressure Visibility Wind Dir Wind Speed Gust Speed Precip Events Conditions
12:20 AM 53.6 °F 51.8 °F 94% 30.01 in 6.2 mi West 3.5 mph - N/A Fog Shallow Fog
12:50 AM 51.8 °F 50.0 °F 94% 30.01 in 5.0 mi SW 1.2 mph - N/A   Partly Cloudy
1:20 AM 51.8 °F 51.8 °F 100% 30.01 in 2.5 mi SW 2.3 mph - N/A Fog Patches of Fog
1:50 AM 51.8 °F 50.0 °F 94% 30.01 in 2.5 mi WSW 3.5 mph - N/A Fog Patches of Fog
2:00 AM 52 °F 51 °F 97% 30.02 in 2 mi West 4.6 mph - - Fog Patches of Fog
2:20 AM 50.0 °F 50.0 °F 100% 30.01 in 1.6 mi West 3.5 mph - N/A Fog Patches of Fog
2:50 AM 50.0 °F 50.0 °F 100% 30.01 in 1.2 mi West 2.3 mph - N/A Fog Patches of Fog
3:20 AM 50.0 °F 50.0 °F 100% 30.01 in 0.6 mi West 3.5 mph - N/A Fog Patches of Fog
3:50 AM 48.2 °F 48.2 °F 100% 30.01 in 0.4 mi WNW 3.5 mph - N/A Fog Patches of Fog
4:20 AM 48.2 °F 48.2 °F 100% 30.01 in 0.4 mi WNW 3.5 mph - N/A Fog Patches of Fog
4:50 AM 48.2 °F 48.2 °F 100% 30.01 in 0.4 mi WNW 3.5 mph - N/A Fog Patches of Fog
5:20 AM 48.2 °F 48.2 °F 100% 30.01 in 0.7 mi WNW 3.5 mph - N/A   Partly Cloudy
5:50 AM 48.2 °F 48.2 °F 100% 30.01 in 0.6 mi West 1.2 mph - N/A Fog Patches of Fog
6:20 AM 50.0 °F 50.0 °F 100% 30.01 in 0.3 mi WSW 1.2 mph - N/A Fog Patches of Fog
6:50 AM 50.0 °F 48.2 °F 94% 30.01 in 0.9 mi NW 1.2 mph - N/A Fog Patches of Fog
7:20 AM 51.8 °F 51.8 °F 100% 30.01 in 0.9 mi NNE 1.2 mph - N/A Fog Patches of Fog
7:50 AM 53.6 °F 51.8 °F 94% 30.01 in 3.1 mi NW 1.2 mph - N/A   Mist
8:00 AM 56 °F 53 °F 87% 30.03 in 3 mi Calm Calm - -   Mist
8:20 AM 59.0 °F 55.4 °F 88% 30.04 in 5.0 mi Calm Calm - N/A   Unknown
8:50 AM 59.0 °F 55.4 °F 88% 30.04 in 5.0 mi WNW 2.3 mph - N/A   Unknown
9:20 AM 59.0 °F 53.6 °F 82% 30.04 in - West 2.3 mph - N/A   Clear
9:50 AM 60.8 °F 55.4 °F 82% 30.04 in 6.2 mi Variable 1.2 mph - N/A   Partly Cloudy
10:20 AM 62.6 °F 51.8 °F 68% 30.04 in 6.2 mi East 4.6 mph - N/A   Partly Cloudy
10:50 AM 64.4 °F 51.8 °F 64% 30.04 in 6.2 mi Variable 2.3 mph - N/A   Partly Cloudy
11:00 AM 63 °F 52 °F 58% 30.05 in 9 mi East 1.2 mph - -   Scattered Clouds
11:20 AM 64.4 °F 53.6 °F 68% 30.04 in 6.2 mi ESE 4.6 mph - N/A   Partly Cloudy
11:50 AM 62.6 °F 55.4 °F 77% 30.04 in 6.2 mi ESE 6.9 mph - N/A   Partly Cloudy
12:20 PM 62.6 °F 53.6 °F 72% 30.04 in 6.2 mi ESE 5.8 mph - N/A   Partly Cloudy
12:50 PM 62.6 °F 53.6 °F 72% 30.04 in 6.2 mi ESE 6.9 mph - N/A   Partly Cloudy
1:20 PM 64.4 °F 50.0 °F 59% 30.04 in 6.2 mi SE 8.1 mph - N/A   Partly Cloudy
1:50 PM 66.2 °F 50.0 °F 56% 30.04 in 6.2 mi ESE 9.2 mph - N/A   Partly Cloudy
2:00 PM 66 °F 49 °F 43% 30.06 in 19 mi ESE 9.2 mph - -   Scattered Clouds
2:20 PM 66.2 °F 48.2 °F 52% 30.04 in 6.2 mi South 4.6 mph - N/A   Partly Cloudy
2:50 PM 66.2 °F 48.2 °F 52% 30.04 in 6.2 mi SE 10.4 mph - N/A   Partly Cloudy
3:20 PM 66.2 °F 50.0 °F 56% 30.04 in 6.2 mi SE 9.2 mph - N/A   Partly Cloudy
3:50 PM 66.2 °F 50.0 °F 56% 30.04 in 6.2 mi SSE 5.8 mph - N/A   Partly Cloudy
4:20 PM 64.4 °F 50.0 °F 59% 30.04 in 6.2 mi SSE 6.9 mph - N/A   Partly Cloudy
4:50 PM 64.4 °F 51.8 °F 64% 30.04 in 6.2 mi SSE 4.6 mph - N/A   Partly Cloudy
5:00 PM 64 °F 51 °F 53% 30.05 in 19 mi SSE 4.6 mph - -   Scattered Clouds
5:20 PM 64.4 °F 51.8 °F 64% 30.04 in 6.2 mi SE 4.6 mph - N/A   Partly Cloudy
5:50 PM 64.4 °F 51.8 °F 64% 30.04 in 6.2 mi SE 3.5 mph - N/A   Partly Cloudy
6:20 PM 62.6 °F 53.6 °F 72% 30.04 in 6.2 mi South 3.5 mph - N/A   Partly Cloudy
6:50 PM 60.8 °F 55.4 °F 82% 30.04 in 6.2 mi SSW 5.8 mph - N/A   Partly Cloudy
7:20 PM 59.0 °F 53.6 °F 82% 30.04 in - SW 5.8 mph - N/A   Clear
7:50 PM 59.0 °F 53.6 °F 82% 30.04 in - SW 5.8 mph - N/A   Clear
8:00 PM 58 °F 52 °F 76% 30.04 in 19 mi WSW 4.6 mph - -   Scattered Clouds
8:20 PM 59.0 °F 53.6 °F 82% 30.04 in - SW 5.8 mph - N/A   Clear
8:50 PM 57.2 °F 51.8 °F 82% 30.04 in - SW 4.6 mph - N/A   Clear
9:20 PM 57.2 °F 53.6 °F 88% 30.04 in - WSW 5.8 mph - N/A   Clear
9:50 PM 57.2 °F 53.6 °F 88% 30.04 in - WSW 4.6 mph - N/A   Clear
10:20 PM 57.2 °F 53.6 °F 88% 30.04 in - WSW 4.6 mph - N/A   Clear
10:50 PM 55.4 °F 53.6 °F 94% 30.04 in - WSW 3.5 mph - N/A   Clear
11:00 PM 57 °F 55 °F 89% 30.04 in 9 mi WSW 3.5 mph - - Fog Patches of Fog
11:20 PM 55.4 °F 53.6 °F 94% 30.04 in 6.2 mi WSW 3.5 mph - N/A Fog Shallow Fog
11:50 PM 55.4 °F 53.6 °F 94% 30.04 in 6.2 mi West 3.5 mph - N/A Fog Shallow Fog